カタログに戻る

GLOBALSTAR M037

運用中通信LEO
NORAD 25652·PAYLOAD·🇺🇸 United States

打ち上げ Mar 15, 1999 から Baikonur Cosmodrome

Loading…

次のパス (今後24時間)

TLE

最新Source: Space-Track

元期: Sep 13, 2026, 23:38 UTC

1 25652U 99012D   26256.98491253 -.00000082  00000-0  11927-3 0  9997
2 25652  51.9984 242.0320 0002083 104.3331 290.9045 12.62471171268590

AllMySatでGLOBALSTAR M037をリアルタイム追跡

Download on the App Store